Regional Weather Roundup
Issued by NWS

Home | Current Version | Previous Version | Text Only | Print | Product List | Glossary On
Versions: 1 2 3 4 5 6 7 8 9 10 11 12 13 14 15 16 17 18 19 20 21 22 23 24 25 26 27 28 29 30 31 32 33 34 35 36 37 38 39 40 41 42 43 44 45 46 47 48 49 50
000
ASUS46 KLOX 261502
RWRCA

SOUTHERN CALIFORNIA WEATHER ROUNDUP
NATIONAL WEATHER SERVICE OXNARD CALIFORNIA
700 AM PST MON JAN 26 2015

NOTE: "FAIR" INDICATES FEW OR NO CLOUDS BELOW 12,000 FEET WITH NO
SIGNIFICANT WEATHER AND/OR OBSTRUCTIONS TO VISIBILITY.

  -  STATIONS PRECEEDED BY AN ASTERISK (*) ARE NOT NWS OR FAA
     STATIONS AND ARE NOT SUBJECT TO NWS AND FAA QUALITY CONTROL.

CAZ041-042-087-261600-
LA AND ORANGE COUNTY COASTAL AREAS


CITY           SKY/WX    TMP DP  RH WIND       PRES   REMARKS
L.A. DOWNTOWN  CLOUDY    67  33  28 E5        29.99R
L.A. AIRPORT   CLOUDY    67  34  29 E10       29.98S
LONG BEACH     CLOUDY    62  39  42 CALM      29.98R

CITY           SKY/WX    TMP DP  RH WIND       PRES   REMARKS
AVALON           N/A     61 N/A N/A S3          N/A
FULLERTON      CLOUDY    64  36  35 CALM      29.97R
HAWTHORNE      LGT RAIN  67  36  31 NE8       29.98S
*LOS ALAMITOS  FAIR      63  39  42 NE7       29.97S
*REDONDO BEACH   N/A     60  39  46 CALM      29.98S
SANTA ANA      CLOUDY    65  39  38 NE5       29.97S
STA MONICA APT CLOUDY    65  36  34 NE5       29.98S
*UCLA            N/A     68  32  26 N5        29.97R

$$

CAZ547-548-048-261600-
LA COUNTY VALLEYS AND INLAND EMPIRE


CITY           SKY/WX    TMP DP  RH WIND       PRES   REMARKS
BURBANK        CLOUDY    59  39  47 CALM      30.00R
VAN NUYS       CLOUDY    58  41  53 CALM      30.01R

CITY           SKY/WX    TMP DP  RH WIND       PRES   REMARKS
CORONA AIRPORT CLOUDY    57  40  53 VRB5      30.02S
CHINO          CLOUDY    60  40  47 CALM      30.03R
*NORTHRIDGE      N/A     57  39  51 CALM        N/A
ONTARIO        CLOUDY    64  33  31 N8        30.02S
*PASADENA        N/A     66  36  32 CALM        N/A
POMONA         CLOUDY    59  34  38 CALM      30.05
RIVERSIDE      CLOUDY    61  34  36 NE8       30.02S
SAN BERNARDINO CLOUDY    55  32  41 NE3       30.03
*WHITEMAN AP   NOT AVBL
*WOODLAND HILL   N/A     55  39  54 VRB1        N/A

$$

CAZ054-055-261600-
LA AND SAN BERNARDINO COUNTY MOUNTAINS


CITY           SKY/WX    TMP DP  RH WIND       PRES   REMARKS
*ACTON           N/A     55  31  39 E2G17       N/A
*BIG BEAR AIRP CLOUDY    39  21  48 NE3       30.22F
*BIG PINES       N/A     42  18  38 CALM        N/A
*CHILAO          N/A     51  17  26 E8          N/A
MT WILSON NWS    N/A     50  16  25 NE6         N/A
SANDBERG       MOCLDY    54  26  34 E15       30.14R
*WARM SPRINGS    N/A     53  27  36 NE21        N/A

$$

CAZ028-029-059-060-099-261600-
ANTELOPE VALLEY AND SURROUNDING AREAS


CITY           SKY/WX    TMP DP  RH WIND       PRES   REMARKS
LANCASTER      CLOUDY    39  33  79 W3        30.12S
PALMDALE       CLOUDY    43  36  76 CALM      30.12R

CITY           SKY/WX    TMP DP  RH WIND       PRES   REMARKS
29 PALMS       CLOUDY    48  29  47 CALM      30.19S
BARSTOW/DAGGET MOCLDY    43  31  62 SE3       30.12R
BISHOP         PTCLDY    29  17  61 NE7       30.21R WCI  22
CHINA LAKE     CLOUDY    44  34  67 CALM      30.11S
EDWARDS AFB    CLOUDY    38  32  79 N3        30.10R
MOJAVE         FAIR      46  30  53 W5        30.12S
NEEDLES        CLOUDY    58  32  37 W6        30.11R
VICTORVILLE    CLOUDY    45  34  65 CALM      30.11R

$$

CAZ039-040-261600-
VENTURA AND SANTA BARBARA COUNTY COAST


CITY           SKY/WX    TMP DP  RH WIND       PRES   REMARKS
CAMARILLO      CLOUDY    66  36  32 NE8       29.97R
NWS OXNARD       N/A     63  40  43 CALM      29.96R
OXNARD AIRPORT CLOUDY    63  38  39 S3        29.97R
*POINT MUGU    CLOUDY    67  44  43 S10       29.98R
SBA APT/GOLETA CLOUDY    51  44  77 SW3       29.98R
*SANTA BARBARA   N/A     58  40  52 CALM      30.05R
*VENTURA         N/A     66  37  34 NE3       29.99S

$$

CAZ044-045-261600-
VENTURA COUNTY VALLEYS


CITY           SKY/WX    TMP DP  RH WIND       PRES   REMARKS
*SIMI VALLEY     N/A     68  33  28 NE7       29.95R
*OJAI            N/A     51  44  76 CALM      29.95S
*FILLMORE        N/A     64  41  42 CALM      29.89R

$$

CAZ053-261600-
VENTURA COUNTY MOUNTAINS


CITY           SKY/WX    TMP DP  RH WIND       PRES   REMARKS
*LOCKWOOD VLY    N/A     45  25  45 MISG        N/A
*ROSE VALLEY     N/A     61  30  31 MISG        N/A

$$

CAZ034-035-036-261600-
CENTRAL COAST AND SANTA YNEZ VALLEY


CITY           SKY/WX    TMP DP  RH WIND       PRES   REMARKS
SAN LUIS OBISP MOCLDY    49  36  61 E10       29.99R
SANTA MARIA    MOCLDY    54  37  52 CALM      29.99R

CITY           SKY/WX    TMP DP  RH WIND       PRES   REMARKS
*CAL POLY SLO    N/A     52  37  58 CALM        N/A
*LOMPOC        CLOUDY    54  36  50 SE6       30.00R
*PISMO BEACH     N/A     57  35  44 N6        29.98S
*SANTA YNEZ    FAIR      46  39  76 W3        30.00R

$$

CAZ037-038-051-261600-
SAN LUIS OBISPO COUNTY INTERIOR AND CUYAMA VALLEY


CITY           SKY/WX    TMP DP  RH WIND       PRES   REMARKS
*CUYAMA          N/A     48  33  57 CALM      29.99R
PASO ROBLES    PTCLDY    39  34  82 E3        30.04R

$$

CAZ032-033-061-261600-
SOUTHERN DESERTS


CITY           SKY/WX    TMP DP  RH WIND       PRES   REMARKS
BLYTHE         CLOUDY    53  37  54 SE5       30.11R
IMPERIAL       CLOUDY    58  42  55 N3        30.05R
PALM SPRINGS   CLOUDY    61  34  36 CALM      30.09R
THERMAL        CLOUDY    57  36  45 NE5       30.05R

$$

ELSEWHERE ACROSS THE WESTERN UNITED STATES AND MEXICO


CITY           SKY/WX    TMP DP  RH WIND       PRES   REMARKS
DENVER, CO     PTCLDY    42  25  50 SW13      30.25R
GRAND CANYON,  MOCLDY    42  23  46 E7        30.31R
HONOLULU, HI   PTCLDY    69  62  78 NE12      29.91F
KAHULUI, MAUI  MOCLDY   N/A N/A N/A NE13        N/A
LAKE TAHOE, CA CLEAR     26  21  81 CALM      30.24S
LAS VEGAS, NV  MOCLDY    52  31  44 S12       30.14S
MAMMOTH LAKES, FAIR      28  19  69 NW3       30.30S
MEXICO CITY, M PTSUNNY   50  39  66 NE6       30.45R
PHOENIX, AZ    MOCLDY    54  33  45 CALM      30.10R
PORTLAND, OR   FOG       40  40 100 CALM      30.01S VSB 1/4
RENO, NV       PTCLDY    29  24  82 CALM      30.24S
SALT LAKE CITY CLEAR     32  28  85 SE5       30.39S WCI  27
SAN DIEGO, CA  MOCLDY    60  33  36 N5        30.00R
SAN FRANCISCO, MOCLDY    53  50  89 N10       30.03R
SAN JOSE, CA   MOCLDY    42  36  79 CALM      30.03R
SEATTLE, WA    PTCLDY    44  42  93 S3        29.95S
TIJUANA, MEX   MOCLDY    70  27  19 E12       30.02R

$$

STATION/POSITION TIME  TEMP    WIND        PRES    VSBY  WAVE
                       AIR SEA DIR/SP/G                  HT/PER
                 (UTC) (F)     (DEG/KT/KT) (MB)    (MI)  (FT/S)
POINT ARGUELLO B NOT AVBL
WEST SANTA BARBA 1400   61 60  190/  6/  8 1014.4R         6/15
POINT CONCEPTION NOT AVBL
EAST SANTA BARBA NOT AVBL
SANTA MONICA BAY 1500   63 62   30/  4/  6 1015.2R         4/15



USA.gov is the U.S. government's official web portal to all federal, state and local government web resources and services.